When you browse on this site, cookies collect data to enhance your experience and personalize the content and advertising you see.
Visit our Privacy Policy to learn more. By continuing to use the site, you agree to this use of cookies and data.
  • In Germany
  • List of Countries
  • For 7 days
  • Water Temperature
  • Satellite Maps
  • Weather Map
  • Weather Widgets
  • user-avatar
    Login

    Hourly Weather Generalskoe

    Today, 20 February, Wednesday

    Time Temperature Precipitation Wind Pressure Humidity
    00:00 -1°C° 0 mm 1 mps 767 mmHg 67%
    01:00 -1°C° 0 mm 1 mps 767 mmHg 66%
    02:00 -3°C° 0 mm 2 mps 767 mmHg 65%
    03:00 -3°C° 0 mm 2 mps 766 mmHg 63%
    04:00 -3°C° 0 mm 2 mps 766 mmHg 62%
    05:00 -3°C° 0 mm 2 mps 765 mmHg 62%
    06:00 -3°C° 0 mm 2 mps 765 mmHg 61%
    07:00 -2°C° 0 mm 2 mps 765 mmHg 59%
    08:00 -2°C° 0 mm 2 mps 764 mmHg 57%
    09:00 -1°C° 0 mm 3 mps 764 mmHg 56%
    10:00 0°C° 0 mm 3 mps 764 mmHg 54%
    11:00 +1°C° 0 mm 3 mps 763 mmHg 51%
    12:00 +1°C° 0 mm 4 mps 763 mmHg 49%
    13:00 +3°C° 0 mm 4 mps 763 mmHg 53%
    14:00 +3°C° 0 mm 4 mps 762 mmHg 56%
    15:00 +3°C° 0 mm 5 mps 762 mmHg 60%
    16:00 +3°C° 0 mm 4 mps 761 mmHg 65%
    17:00 +1°C° 0 mm 4 mps 761 mmHg 69%
    18:00 +1°C° 0 mm 3 mps 761 mmHg 74%
    19:00 +1°C° 0 mm 3 mps 761 mmHg 75%
    20:00 +1°C° 0 mm 3 mps 760 mmHg 77%
    21:00 0°C° 0 mm 3 mps 760 mmHg 79%
    22:00 0°C° 0 mm 3 mps 760 mmHg 80%
    23:00 0°C° 0 mm 3 mps 760 mmHg 81%

    Tomorrow, 21 February, Thursday

    Time Temperature Precipitation Wind Pressure Humidity
    00:00 0°C° 0 mm 3 mps 759 mmHg 82%
    01:00 -1°C° 0 mm 4 mps 759 mmHg 85%
    02:00 0°C° 0 mm 4 mps 759 mmHg 88%
    03:00 0°C° 0 mm 4 mps 759 mmHg 91%
    04:00 0°C° 0 mm 4 mps 758 mmHg 92%
    05:00 0°C° 0 mm 5 mps 758 mmHg 92%
    06:00 +1°C° 0 mm 5 mps 757 mmHg 93%
    07:00 +1°C° 0.2 mm 5 mps 757 mmHg 93%
    08:00 +1°C° 0.2 mm 5 mps 757 mmHg 94%
    09:00 +1°C° 0.2 mm 5 mps 757 mmHg 94%
    10:00 +2°C° 0.1 mm 5 mps 757 mmHg 91%
    11:00 +2°C° 0.1 mm 5 mps 757 mmHg 88%
    12:00 +2°C° 0.1 mm 5 mps 756 mmHg 86%
    13:00 +3°C° 0 mm 6 mps 756 mmHg 77%
    14:00 +4°C° 0 mm 7 mps 756 mmHg 68%
    15:00 +4°C° 0 mm 8 mps 755 mmHg 59%
    16:00 +3°C° 0.3 mm 7 mps 755 mmHg 63%
    17:00 +3°C° 0.3 mm 7 mps 756 mmHg 68%
    18:00 +2°C° 0.3 mm 7 mps 756 mmHg 72%
    19:00 -1°C° 0.2 mm 7 mps 756 mmHg 69%
    20:00 -2°C° 0.2 mm 7 mps 757 mmHg 65%
    21:00 -4°C° 0.2 mm 7 mps 757 mmHg 62%
    22:00 -4°C° 0 mm 7 mps 758 mmHg 62%
    23:00 -4°C° 0 mm 6 mps 758 mmHg 62%

    Day after tomorrow, 22 February, Friday

    Time Temperature Precipitation Wind Pressure Humidity
    00:00 -5°C° 0 mm 6 mps 759 mmHg 62%
    01:00 -5°C° 0 mm 6 mps 759 mmHg 61%
    02:00 -5°C° 0 mm 6 mps 759 mmHg 59%
    03:00 -5°C° 0 mm 6 mps 759 mmHg 57%
    04:00 -5°C° 0 mm 6 mps 759 mmHg 58%
    05:00 -5°C° 0 mm 5 mps 759 mmHg 59%
    06:00 -5°C° 0 mm 5 mps 759 mmHg 59%
    07:00 -5°C° 0 mm 5 mps 760 mmHg 59%
    08:00 -5°C° 0 mm 5 mps 760 mmHg 58%
    09:00 -5°C° 0 mm 5 mps 760 mmHg 57%
    10:00 -4°C° 0 mm 6 mps 760 mmHg 56%
    11:00 -4°C° 0 mm 6 mps 759 mmHg 54%
    12:00 -3°C° 0 mm 6 mps 759 mmHg 52%
    13:00 -2°C° 0 mm 5 mps 759 mmHg 52%
    14:00 -2°C° 0 mm 5 mps 759 mmHg 52%
    15:00 -1°C° 0 mm 5 mps 758 mmHg 52%
    16:00 -2°C° 0.2 mm 4 mps 758 mmHg 62%
    17:00 -2°C° 0.2 mm 3 mps 758 mmHg 71%
    18:00 -3°C° 0.2 mm 2 mps 758 mmHg 81%
    19:00 -4°C° 0.6 mm 3 mps 758 mmHg 84%
    20:00 -5°C° 0.6 mm 4 mps 759 mmHg 86%
    21:00 -6°C° 0.6 mm 5 mps 759 mmHg 89%
    22:00 -8°C° 0.8 mm 6 mps 759 mmHg 89%
    23:00 -9°C° 0.8 mm 6 mps 759 mmHg 90%

    23 February, Saturday

    Time Temperature Precipitation Wind Pressure Humidity
    00:00 -11°C° 0.8 mm 7 mps 759 mmHg 91%
    01:00 -11°C° 0.5 mm 7 mps 760 mmHg 90%
    02:00 -12°C° 0.5 mm 7 mps 760 mmHg 90%
    03:00 -13°C° 0.5 mm 7 mps 760 mmHg 90%
    04:00 -13°C° 0.5 mm 7 mps 760 mmHg 90%
    05:00 -13°C° 0.5 mm 7 mps 760 mmHg 90%
    06:00 -13°C° 0.5 mm 7 mps 761 mmHg 89%
    07:00 -13°C° 0.3 mm 7 mps 761 mmHg 89%
    08:00 -13°C° 0.3 mm 7 mps 762 mmHg 88%
    09:00 -13°C° 0.3 mm 7 mps 762 mmHg 87%
    10:00 -13°C° 0.3 mm 7 mps 762 mmHg 87%
    11:00 -12°C° 0.3 mm 7 mps 763 mmHg 88%
    12:00 -12°C° 0.3 mm 7 mps 763 mmHg 88%
    13:00 -12°C° 0.2 mm 7 mps 763 mmHg 88%
    14:00 -11°C° 0.2 mm 7 mps 763 mmHg 87%
    15:00 -10°C° 0.2 mm 6 mps 763 mmHg 87%
    16:00 -10°C° 0.1 mm 6 mps 764 mmHg 87%
    17:00 -10°C° 0.1 mm 6 mps 764 mmHg 88%
    18:00 -11°C° 0.1 mm 6 mps 765 mmHg 88%
    19:00 -11°C° 0.2 mm 6 mps 765 mmHg 89%
    20:00 -11°C° 0.2 mm 6 mps 766 mmHg 89%
    21:00 -11°C° 0.2 mm 6 mps 766 mmHg 90%
    22:00 -11°C° 0.1 mm 5 mps 766 mmHg 90%
    23:00 -11°C° 0.1 mm 5 mps 766 mmHg 90%

    24 February, Sunday

    Time Temperature Precipitation Wind Pressure Humidity
    00:00 -11°C° 0.1 mm 5 mps 766 mmHg 89%
    01:00 -11°C° 0 mm 5 mps 766 mmHg 89%
    02:00 -11°C° 0 mm 5 mps 766 mmHg 89%
    03:00 -11°C° 0 mm 5 mps 766 mmHg 89%
    04:00 -10°C° 0 mm 4 mps 766 mmHg 90%
    05:00 -10°C° 0 mm 4 mps 766 mmHg 90%
    06:00 -11°C° 0 mm 4 mps 766 mmHg 91%
    07:00 -10°C° 0.1 mm 4 mps 766 mmHg 91%
    08:00 -10°C° 0.1 mm 4 mps 767 mmHg 91%
    09:00 -10°C° 0.1 mm 4 mps 767 mmHg 91%
    10:00 -9°C° 0.2 mm 4 mps 767 mmHg 91%
    11:00 -9°C° 0.2 mm 4 mps 767 mmHg 91%
    12:00 -8°C° 0.2 mm 4 mps 767 mmHg 92%
    13:00 -8°C° 0.3 mm 4 mps 767 mmHg 92%
    14:00 -8°C° 0.3 mm 4 mps 767 mmHg 92%
    15:00 -7°C° 0.3 mm 4 mps 767 mmHg 91%
    16:00 -8°C° 0.1 mm 4 mps 767 mmHg 91%
    17:00 -8°C° 0.1 mm 4 mps 767 mmHg 92%
    18:00 -8°C° 0.1 mm 4 mps 767 mmHg 92%
    19:00 -8°C° 0.1 mm 4 mps 767 mmHg 92%
    20:00 -8°C° 0.1 mm 4 mps 767 mmHg 92%
    21:00 -8°C° 0.1 mm 4 mps 767 mmHg 92%
    22:00 -8°C° 0.2 mm 5 mps 767 mmHg 92%
    23:00 -8°C° 0.2 mm 5 mps 767 mmHg 92%

    25 February, Monday

    Time Temperature Precipitation Wind Pressure Humidity
    00:00 -8°C° 0.2 mm 5 mps 767 mmHg 92%
    01:00 -8°C° 0.1 mm 5 mps 767 mmHg 92%
    02:00 -8°C° 0.1 mm 5 mps 767 mmHg 92%
    03:00 -8°C° 0.1 mm 5 mps 767 mmHg 93%
    04:00 -8°C° 0.1 mm 5 mps 767 mmHg 93%
    05:00 -8°C° 0.1 mm 4 mps 766 mmHg 93%
    06:00 -8°C° 0.1 mm 4 mps 766 mmHg 93%
    07:00 -8°C° 0.1 mm 4 mps 766 mmHg 93%
    08:00 -8°C° 0.1 mm 4 mps 766 mmHg 93%
    09:00 -7°C° 0.1 mm 4 mps 767 mmHg 93%
    10:00 -7°C° 0.2 mm 4 mps 766 mmHg 94%
    11:00 -7°C° 0.2 mm 4 mps 766 mmHg 94%
    12:00 -5°C° 0.2 mm 4 mps 766 mmHg 94%
    13:00 -5°C° 0.1 mm 4 mps 766 mmHg 94%
    14:00 -4°C° 0.1 mm 4 mps 765 mmHg 94%
    15:00 -4°C° 0.1 mm 4 mps 765 mmHg 93%
    16:00 -4°C° 0 mm 4 mps 764 mmHg 94%
    17:00 -4°C° 0 mm 3 mps 764 mmHg 94%
    18:00 -5°C° 0 mm 3 mps 763 mmHg 94%
    19:00 -5°C° 0 mm 3 mps 763 mmHg 94%
    20:00 -5°C° 0 mm 3 mps 763 mmHg 95%
    21:00 -5°C° 0 mm 2 mps 763 mmHg 95%
    22:00 -5°C° 0.1 mm 2 mps 762 mmHg 95%
    23:00 -5°C° 0.1 mm 2 mps 761 mmHg 95%
    Show more